Retour au catalogue

SL-6 DEB *

ActifHEO
NORAD 48262·DEBRIS·🇷🇺 Russia

Lancé Jul 18, 1980 depuis Plesetsk Cosmodrome

Loading…

Prochains Passages (prochaines 24 heures)

TLE

VieillissantSource: Space-Track

Époque: Sep 5, 2026, 06:52 UTC

1 48262U 80063F   26248.28616420 -.00000564  00000-0  73090-2 0  9997
2 48262  63.8009 351.2237 7210416 280.7335  69.1505  2.05099866 95816

Suivez SL-6 DEB * en temps réel avec AllMySat

Download on the App Store